Regional Weather Roundup
Issued by NWS Green Bay, WI

Home | Current Version | Previous Version | Graphics & Text | Print | Product List | Glossary Off
Versions: 1 2 3 4 5 6 7 8 9 10 11 12 13 14 15 16 17 18 19 20 21 22 23 24 25 26 27 28 29 30 31 32 33 34 35 36 37 38 39 40 41 42 43 44 45 46 47 48 49 50

000
ASUS43 KGRB 182110
RWRGRB

NORTH-CENTRAL AND NORTHEAST WISCONSIN REGIONAL WEATHER ROUNDUP
NATIONAL WEATHER SERVICE GREEN BAY WI
400 PM CDT THU SEP 18 2014

WIZ005-009-010>012-018-019-182200-
NORTH CENTRAL WISCONSIN

CITY           SKY/WX    TMP DP  RH WIND       PRES   REMARKS
IRONWOOD       CLOUDY    54  48  82 SW7       30.10S
MANITOWISH WTR CLOUDY    50  46  86 S7        30.13S
ARBOR VITAE    CLOUDY    53  46  78 S6        30.13F
EAGLE RIVER    CLOUDY    54  42  65 S6        30.13F
LAND O LAKES   CLOUDY    54  44  68 S5        30.14S
RHINELANDER    PTSUNNY   53  45  74 S5        30.14F
PHILLIPS       CLOUDY    54  48  78 SE7       30.12F
ANTIGO         PTSUNNY   55  46  73 S5        30.15F
TOMAHAWK       PTSUNNY   55  46  72 CALM      30.14F
MERRILL        SUNNY     57  47  70 CALM      30.14F
$$

WIZ013-073-182200-
NORTHEAST WISCONSIN

CITY           SKY/WX    TMP DP  RH WIND       PRES   REMARKS
IRON MOUNTAIN  CLOUDY    57  41  55 S8        30.13F
MARINETTE      CLOUDY    54  43  66 E8        30.17S
OCONTO         CLOUDY    53  45  75 SE6       30.16F
$$

WIZ017-030-035>037-045-182200-
CENTRAL WISCONSIN

CITY           SKY/WX    TMP DP  RH WIND       PRES   REMARKS
MEDFORD        PTSUNNY   53  48  81 SE7       30.13F
WAUSAU         MOSUNNY   56  47  71 S6        30.13F
MOSINEE        MOSUNNY   55  48  76 VRB5      30.16F
MARSHFIELD     CLOUDY    55  48  77 SE8       30.14F
WISC RAPIDS    SUNNY     59  49  69 VRB5      30.15F
STEVENS POINT  PTSUNNY   53  45  76 CALM      30.15F
WAUPACA        SUNNY     60  48  64 CALM      30.16F
SHAWANO        CLOUDY    56  46  69 CALM      30.17F
CLINTONVILLE   PTSUNNY   55  45  67 S3        30.15F
$$

WIZ038-039-048-051-182200-
FOX VALLEY

CITY           SKY/WX    TMP DP  RH WIND       PRES   REMARKS
NWS GREEN BAY  CLOUDY    57  47  69 E5        30.16F
APPLETON       MOSUNNY   57  46  67 CALM      30.16F
OSHKOSH        SUNNY     59  50  72 E3        30.14F
FOND DU LAC    MOSUNNY   61  50  67 VRB5      30.14F
$$

WIZ022-050-052-182200-
EAST CENTRAL WISCONSIN

CITY           SKY/WX    TMP DP  RH WIND       PRES   REMARKS
STURGEON BAY   PTSUNNY   55  45  67 NE3       30.17F
MANITOWOC      CLOUDY    57  49  74 E3        30.16F
SHEBOYGAN      CLOUDY    57  48  72 VRB5      30.16F
$$

LMZ563-521-522-541>543-182200-
LAKESHORE

STATION/POSITION TIME  TEMP    WIND        PRES    VSBY  WAVE
                       AIR SEA DIR/SP/G                  HT/PER
                 (UTC) (F)     (DEG/KT/KT) (MB)    (MI)  (FT/S)
SHEBOYGAN LKSHOR 2100   51 49   50/ 14/ 14 1021.7F
KEWAUNEE LKSHORE 2100   54      80/  6/  8 1020.6F
NORTHPORT PIER   2100   53      80/  5/  8 1022.0S
N MID LAKE BUOY  2100   52 59   90/  4/  6 1022.3F         1/ 3
S GREEN BAY BUOY 2100   53     VRB  8/ 10  1022.4F
CHAMBERS ISLAND  2100   52      20/  8/  9 1022.4S
MENOMINEE LKSHOR 2100   53      60/  6/  8 1022.3F
$$


USA.gov is the U.S. government's official web portal to all federal, state and local government web resources and services.